TimeCDT,TemperatureF,Dew PointF,Humidity,Sea Level PressureIn,VisibilityMPH,Wind Direction,Wind SpeedMPH,Gust SpeedMPH,PrecipitationIn,Events,Conditions,WindDirDegrees,DateUTC
12:15 AM,68.7,61.9,79,30.17,10.0,East,5.8,-,N/A,,Clear,100,2013-05-13 05:15:00
12:35 AM,68.9,61.5,77,30.17,10.0,East,4.6,-,N/A,,Clear,90,2013-05-13 05:35:00
12:55 AM,69.4,61.3,75,30.17,10.0,East,4.6,-,N/A,,Clear,90,2013-05-13 05:55:00
1:15 AM,69.8,61.9,76,30.16,10.0,Calm,Calm,-,N/A,,Clear,0,2013-05-13 06:15:00
1:35 AM,68.0,62.1,81,30.16,10.0,Calm,Calm,-,N/A,,Clear,0,2013-05-13 06:35:00
1:55 AM,66.9,62.6,86,30.17,10.0,Calm,Calm,-,N/A,,Clear,0,2013-05-13 06:55:00
2:15 AM,65.7,62.4,89,30.16,10.0,Calm,Calm,-,N/A,,Clear,0,2013-05-13 07:15:00
2:35 AM,65.7,62.6,90,30.15,10.0,Calm,Calm,-,N/A,,Mostly Cloudy,0,2013-05-13 07:35:00
2:55 AM,66.0,62.8,89,30.16,10.0,Calm,Calm,-,N/A,,Overcast,0,2013-05-13 07:55:00
3:15 AM,65.7,63.0,91,30.16,10.0,Calm,Calm,-,N/A,,Overcast,0,2013-05-13 08:15:00
3:35 AM,65.5,63.3,93,30.16,10.0,North,4.6,-,N/A,,Mostly Cloudy,350,2013-05-13 08:35:00
3:55 AM,64.9,62.8,93,30.16,10.0,North,4.6,-,N/A,,Clear,350,2013-05-13 08:55:00
4:15 AM,64.2,62.2,93,30.16,10.0,North,4.6,-,N/A,,Clear,360,2013-05-13 09:15:00
4:35 AM,64.4,62.1,92,30.17,10.0,North,5.8,-,N/A,,Clear,350,2013-05-13 09:35:00
4:55 AM,64.4,62.2,93,30.17,10.0,North,4.6,-,N/A,,Clear,360,2013-05-13 09:55:00
5:15 AM,64.6,62.2,92,30.17,10.0,NNW,3.5,-,N/A,,Clear,330,2013-05-13 10:15:00
5:35 AM,64.0,62.1,93,30.17,10.0,North,5.8,-,N/A,,Clear,350,2013-05-13 10:35:00
5:55 AM,63.9,61.9,93,30.18,10.0,North,6.9,-,N/A,,Clear,360,2013-05-13 10:55:00
6:15 AM,63.7,61.7,93,30.18,10.0,North,-9999.0,-,N/A,,Clear,0,2013-05-13 11:15:00
6:35 AM,63.5,61.7,94,30.19,10.0,North,5.8,-,N/A,,Clear,360,2013-05-13 11:35:00
6:55 AM,63.1,61.3,94,30.20,7.0,North,5.8,-,N/A,,Clear,10,2013-05-13 11:55:00
7:15 AM,63.7,62.2,95,30.20,7.0,NNE,4.6,-,N/A,,Clear,30,2013-05-13 12:15:00
7:35 AM,65.7,64.0,94,30.21,7.0,NNE,3.5,-,N/A,,Clear,30,2013-05-13 12:35:00
7:55 AM,68.4,65.7,91,30.22,10.0,NNE,3.5,-,N/A,,Clear,30,2013-05-13 12:55:00
8:35 AM,72.1,66.2,82,30.23,10.0,NNE,8.1,-,N/A,,Clear,30,2013-05-13 13:35:00
8:55 AM,73.4,64.9,75,30.23,10.0,NE,6.9,-,N/A,,Clear,50,2013-05-13 13:55:00
9:15 AM,74.8,64.4,70,30.24,10.0,NE,9.2,-,N/A,,Clear,50,2013-05-13 14:15:00
9:35 AM,76.1,64.0,66,30.24,10.0,NE,6.9,-,N/A,,Clear,50,2013-05-13 14:35:00
9:55 AM,77.4,62.1,59,30.24,10.0,East,10.4,-,N/A,,Clear,80,2013-05-13 14:55:00
10:15 AM,78.8,62.4,57,30.25,10.0,East,10.4,-,N/A,,Clear,90,2013-05-13 15:15:00
10:35 AM,79.7,62.4,55,30.25,10.0,East,13.8,-,N/A,,Clear,100,2013-05-13 15:35:00
10:55 AM,80.1,60.8,52,30.25,10.0,ESE,13.8,18.4,N/A,,Clear,110,2013-05-13 15:55:00
11:15 AM,80.6,60.6,50,30.25,10.0,ESE,11.5,-,N/A,,Clear,110,2013-05-13 16:15:00
11:35 AM,81.1,61.0,50,30.25,10.0,East,13.8,-,N/A,,Clear,100,2013-05-13 16:35:00
11:55 AM,81.5,61.0,50,30.26,10.0,East,10.4,17.3,N/A,,Clear,80,2013-05-13 16:55:00
12:15 PM,81.9,61.0,49,30.26,10.0,East,6.9,16.1,N/A,,Clear,90,2013-05-13 17:15:00
12:35 PM,82.2,61.2,49,30.26,10.0,East,15.0,18.4,N/A,,Clear,100,2013-05-13 17:35:00
12:55 PM,81.9,61.2,49,30.25,10.0,East,12.7,17.3,N/A,,Clear,80,2013-05-13 17:55:00
1:15 PM,82.2,61.0,48,30.25,10.0,East,10.4,-,N/A,,Clear,100,2013-05-13 18:15:00
1:35 PM,82.6,59.9,46,30.24,10.0,East,12.7,18.4,N/A,,Clear,90,2013-05-13 18:35:00
1:55 PM,82.8,61.3,48,30.24,10.0,East,13.8,-,N/A,,Clear,100,2013-05-13 18:55:00
2:15 PM,82.9,60.6,47,30.23,10.0,East,12.7,-,N/A,,Clear,90,2013-05-13 19:15:00
2:35 PM,83.3,60.4,46,30.22,10.0,East,12.7,-,N/A,,Clear,100,2013-05-13 19:35:00
3:35 PM,82.8,60.4,47,30.20,10.0,East,15.0,19.6,N/A,,Clear,100,2013-05-13 20:35:00
3:55 PM,82.8,60.6,47,30.20,10.0,ESE,16.1,-,N/A,,Clear,110,2013-05-13 20:55:00
4:15 PM,82.4,60.4,47,30.20,10.0,ESE,13.8,19.6,N/A,,Clear,110,2013-05-13 21:15:00
4:35 PM,82.2,61.0,48,30.20,10.0,ESE,13.8,-,N/A,,Clear,120,2013-05-13 21:35:00
4:55 PM,81.7,60.1,48,30.20,10.0,ESE,13.8,-,N/A,,Clear,110,2013-05-13 21:55:00
5:15 PM,81.3,59.9,48,30.20,10.0,ESE,13.8,19.6,N/A,,Clear,110,2013-05-13 22:15:00
5:35 PM,80.4,60.6,51,30.20,10.0,ESE,9.2,-,N/A,,Clear,110,2013-05-13 22:35:00
5:55 PM,80.1,60.6,51,30.19,10.0,SE,13.8,-,N/A,,Clear,140,2013-05-13 22:55:00
6:55 PM,76.8,62.2,61,30.18,10.0,SE,11.5,-,N/A,,Clear,130,2013-05-13 23:55:00
7:15 PM,75.9,62.6,63,30.18,10.0,SE,10.4,-,N/A,,Clear,130,2013-05-14 00:15:00
7:35 PM,75.2,63.5,67,30.18,10.0,SE,9.2,-,N/A,,Clear,130,2013-05-14 00:35:00
7:55 PM,74.7,63.9,69,30.18,10.0,SE,9.2,-,N/A,,Clear,130,2013-05-14 00:55:00
8:15 PM,74.3,64.2,71,30.18,10.0,ESE,9.2,-,N/A,,Clear,120,2013-05-14 01:15:00
8:35 PM,73.8,64.8,73,30.18,10.0,North,-9999.0,-,N/A,,Clear,0,2013-05-14 01:35:00
8:55 PM,73.6,64.2,72,30.18,10.0,ESE,9.2,-,N/A,,Clear,110,2013-05-14 01:55:00
9:15 PM,73.6,63.5,71,30.19,10.0,ESE,10.4,-,N/A,,Clear,120,2013-05-14 02:15:00
9:35 PM,73.6,63.7,71,30.20,10.0,ESE,8.1,-,N/A,,Clear,120,2013-05-14 02:35:00
9:55 PM,73.4,64.6,74,30.19,10.0,ESE,6.9,-,N/A,,Clear,110,2013-05-14 02:55:00
10:15 PM,73.4,64.0,72,30.20,10.0,ESE,9.2,-,N/A,,Clear,120,2013-05-14 03:15:00
10:35 PM,73.4,63.9,72,30.21,10.0,SE,5.8,-,N/A,,Clear,130,2013-05-14 03:35:00
10:55 PM,73.0,63.7,72,30.22,10.0,SE,9.2,-,N/A,,Clear,140,2013-05-14 03:55:00
11:15 PM,73.0,64.0,73,30.22,10.0,SE,6.9,-,N/A,,Clear,130,2013-05-14 04:15:00
11:35 PM,72.7,64.4,75,30.22,10.0,SE,6.9,-,N/A,,Clear,140,2013-05-14 04:35:00
11:55 PM,72.1,64.6,77,30.22,10.0,SE,6.9,-,N/A,,Clear,140,2013-05-14 04:55:00